Regional Weather Roundup
Issued by NWS Memphis, TN

Home | Current Version | Previous Version | Text Only | Print | Product List | Glossary On
Versions: 1 2 3 4 5 6 7 8 9 10 11 12 13 14 15 16 17 18 19 20 21 22 23 24 25 26 27 28 29 30 31 32 33 34 35 36 37 38 39 40 41 42 43 44 45 46 47 48 49 50
000
ASUS44 KMEG 211910
RWRMEG
MEMPHIS CWA HOURLY WEATHER ROUNDUP
NATIONAL WEATHER SERVICE MEMPHIS TN
200 PM CDT MON MAY 21 2018

...WEST TENNESSEE...

CITY           SKY/WX    TMP DP  RH WIND       PRES   REMARKS
MEMPHIS INTL   CLOUDY    78  70  76 S9        30.06F
NWS MEMPHIS      N/A     77 N/A N/A MISG        N/A
JACKSON        CLOUDY    80  72  76 S7        30.07F
COVINGTON      MOSUNNY   81  72  74 SE9       30.06F
BOLIVAR        CLOUDY    77  70  78 SE8       30.08S
LEXINGTON      MOSUNNY   82  70  65 VRB6      30.07F
SELMER         PTSUNNY   81  70  69 S8        30.07F
DYERSBURG      PTSUNNY   82  71  69 S8        30.07F
PARIS          PTSUNNY   79  72  78 CALM      30.07F
HUNTINGDON     MOSUNNY   82  70  65 S8G16     30.06F


...EASTERN ARKANSAS...

CITY           SKY/WX    TMP DP  RH WIND       PRES   REMARKS
JONESBORO      CLOUDY    81  73  76 VRB7      30.04F
WEST MEMPHIS   FAIR      80  72  76 S8        30.04F
BATESVILLE     LGT RAIN  76  71  85 CALM      30.06F
NEWPORT        PTSUNNY   79  70  74 SW8       30.05F
WALNUT RIDGE     N/A     77  70  79 SW7       30.05F
BLYTHEVILLE    PTSUNNY   81  69  67 SE8       30.06F
NW BLYTHEVILLE PTSUNNY   81  70  69 S8        30.06F
SEARCY         LGT RAIN  73  72  96 NE5       30.04F
STUTTGART      CLOUDY    78  72  81 NW16      30.03F
PINE BLUFF     PTSUNNY   84  69  60 N8        30.01F
MONTICELLO     FAIR      86  73  65 E8        30.00F HX  93


...NORTH MISSISSIPPI...

CITY           SKY/WX    TMP DP  RH WIND       PRES   REMARKS
TUPELO         CLOUDY    83  68  60 S8        30.05F
BATESVILLE       N/A    N/A N/A N/A MISG        N/A
OLIVE BRANCH   CLOUDY    73  73 100 SE6       30.07S
TUNICA           N/A     79  72  78 E7        30.05F
CLARKSDALE     MOSUNNY   84  73  70 CALM      30.03F HX  91
CORINTH        PTSUNNY   82  70  65 VRB5      30.06F
GREENWOOD      CLOUDY    83  71  67 MISG      30.01F THUNDER
COLUMBUS       FAIR      81  69  65 SE8       30.04F
STARKVILLE     PTSUNNY   82  70  65 SE7       30.06F
GOLDEN TRIANGL FAIR      83  70  64 SE8       30.05F


...SOUTHEAST MISSOURI...

CITY           SKY/WX    TMP DP  RH WIND       PRES   REMARKS
KENNETT        CLOUDY    81  70  69 S8        30.04F
MALDEN         FAIR      81  68  65 S8        30.07F
WEST PLAINS    CLOUDY    78  69  73 W6        30.07F
POPLAR BLUFF   FAIR      78  70  76 S8        30.05F
CAPE GIRARDEAU PTSUNNY   78  68  71 S9        30.06F


...NORTHWEST ALABAMA...

CITY           SKY/WX    TMP DP  RH WIND       PRES   REMARKS
MUSCLE SHOALS  PTSUNNY   84  65  52 SE9       30.08F


...MIDDLE TENNESSEE...

CITY           SKY/WX    TMP DP  RH WIND       PRES   REMARKS
NASHVILLE      PTSUNNY   85  68  56 E9        30.07F
CLARKSVILLE    PTSUNNY   81  67  62 S7        30.07F
DICKSON        PTCLDY    81  68  65 VRB7G20   30.08F
COLUMBIA       MOSUNNY   84  66  54 SE8       30.06F
LEWISBURG      PTCLDY    82  64  54 S8G16     30.08F


...WESTERN KENTUCKY...

CITY           SKY/WX    TMP DP  RH WIND       PRES   REMARKS
PADUCAH        PTSUNNY   79  70  74 CALM      30.06F
FORT CAMPBELL  PTSUNNY   81  68  64 S8        30.07F


...CENTRAL ARKANSAS...

CITY           SKY/WX    TMP DP  RH WIND       PRES   REMARKS
LITTLE ROCK    PTSUNNY   77  70  79 VRB3      30.03F


SKY/WX REPORTED AS FAIR MEANS FEW OR NO CLOUDS BELOW
12 THOUSAND FEET.





USA.gov is the U.S. government's official web portal to all federal, state and local government web resources and services.